| time (UTC) | temp F | wind direction | speed knots | gust knots | rain 1hr in | rain 24hr in | rain mn in | humidity % | barometer mb |
| 20260503055001 | 36 | 296 | 1.7 | 1.7 | 0.00 | 0.00 | 0.00 | 89 | 1018.9 |
| 20260503054502 | 36 | 269 | 1.7 | 1.7 | 0.00 | 0.00 | 0.00 | 89 | 1018.9 |
| 20260503054001 | 36 | 293 | 1.7 | 1.7 | 0.00 | 0.00 | 0.00 | 90 | 1019.0 |
| 20260503053502 | 37 | 261 | 1.7 | 1.7 | 0.00 | 0.00 | 0.00 | 90 | 1019.0 |
| 20260503053001 | 37 | 277 | 1.7 | 1.7 | 0.00 | 0.00 | 0.00 | 90 | 1018.9 |
| 20260503052501 | 37 | 269 | 1.7 | 1.7 | 0.00 | 0.00 | 0.00 | 89 | 1018.9 |
| 20260503052002 | 37 | 268 | 1.7 | 2.6 | 0.00 | 0.00 | 0.00 | 87 | 1019.0 |
| 20260503051502 | 37 | 305 | 1.7 | 2.6 | 0.00 | 0.00 | 0.00 | 87 | 1019.0 |
| 20260503051002 | 36 | 318 | 1.7 | 1.7 | 0.00 | 0.00 | 0.00 | 88 | 1019.1 |
| 20260503050501 | 36 | 22 | 0.0 | 1.7 | 0.00 | 0.00 | 0.00 | 89 | 1019.1 |
| 20260503050002 | 36 | 304 | 0.0 | 0.0 | 0.00 | 0.00 | 0.00 | 91 | 1019.0 |
| 20260503045501 | 36 | 264 | 0.0 | 1.7 | 0.00 | 0.00 | 0.00 | 90 | 1019.0 |
| 20260503045002 | 36 | 269 | 1.7 | 1.7 | 0.00 | 0.00 | 0.00 | 89 | 1019.0 |
| 20260503044502 | 36 | 269 | 0.0 | 1.7 | 0.00 | 0.00 | 0.00 | 89 | 1019.0 |
| 20260503044002 | 36 | 264 | 1.7 | 2.6 | 0.00 | 0.00 | 0.00 | 89 | 1019.0 |
| 20260503043501 | 36 | 275 | 1.7 | 2.6 | 0.00 | 0.00 | 0.00 | 87 | 1019.0 |
| 20260503043001 | 37 | 260 | 1.7 | 1.7 | 0.00 | 0.00 | 0.00 | 86 | 1019.1 |
| 20260503042502 | 36 | 263 | 1.7 | 2.6 | 0.00 | 0.00 | 0.00 | 87 | 1019.0 |
| 20260503042002 | 36 | 266 | 1.7 | 1.7 | 0.00 | 0.00 | 0.00 | 86 | 1018.9 |
| 20260503041501 | 37 | 281 | 1.7 | 2.6 | 0.00 | 0.00 | 0.00 | 86 | 1019.1 |
| 20260503041002 | 36 | 263 | 1.7 | 2.6 | 0.00 | 0.00 | 0.00 | 85 | 1019.0 |
| 20260503040501 | 36 | 273 | 1.7 | 1.7 | 0.00 | 0.00 | 0.00 | 87 | 1019.1 |
| 20260503040002 | 36 | 259 | 1.7 | 2.6 | 0.00 | 0.00 | 0.00 | 87 | 1019.1 |
| 20260503035502 | 37 | 280 | 1.7 | 2.6 | 0.00 | 0.00 | 0.00 | 86 | 1019.1 |
| 20260503035001 | 37 | 280 | 2.6 | 3.5 | 0.00 | 0.00 | 0.00 | 86 | 1019.1 |
| 20260503034502 | 37 | 271 | 1.7 | 2.6 | 0.00 | 0.00 | 0.00 | 87 | 1018.9 |
| 20260503034001 | 36 | 233 | 1.7 | 1.7 | 0.00 | 0.00 | 0.00 | 88 | 1019.0 |
| 20260503033501 | 37 | 220 | 1.7 | 1.7 | 0.00 | 0.00 | 0.00 | 87 | 1019.1 |
| 20260503033002 | 37 | 227 | 0.0 | 1.7 | 0.00 | 0.00 | 0.00 | 86 | 1019.0 |
| 20260503032502 | 37 | 269 | 0.0 | 1.7 | 0.00 | 0.00 | 0.00 | 85 | 1019.0 |
| 20260503032001 | 37 | 269 | 0.0 | 1.7 | 0.00 | 0.00 | 0.00 | 84 | 1018.9 |
| 20260503031502 | 38 | 235 | 0.0 | 1.7 | 0.00 | 0.00 | 0.00 | 83 | 1019.0 |
| 20260503031001 | 38 | 256 | 0.0 | 1.7 | 0.00 | 0.00 | 0.00 | 83 | 1019.1 |
| 20260503030502 | 38 | 277 | 1.7 | 1.7 | 0.00 | 0.00 | 0.00 | 82 | 1019.0 |
| 20260503030003 | 38 | 287 | 1.7 | 2.6 | 0.00 | 0.00 | 0.00 | 82 | 1019.0 |
| 20260503025501 | 38 | 304 | 0.0 | 0.0 | 0.00 | 0.00 | 0.00 | 84 | 1019.0 |
| 20260503025002 | 38 | 304 | 0.0 | 0.0 | 0.00 | 0.00 | 0.00 | 84 | 1019.2 |
| 20260503024501 | 38 | 304 | 0.0 | 0.0 | 0.00 | 0.00 | 0.00 | 84 | 1019.0 |
| 20260503024001 | 39 | 256 | 0.0 | 0.0 | 0.00 | 0.00 | 0.00 | 83 | 1019.2 |
| 20260503023502 | 39 | 304 | 0.0 | 1.7 | 0.00 | 0.00 | 0.00 | 82 | 1019.0 |
| 20260503023001 | 39 | 308 | 1.7 | 2.6 | 0.00 | 0.00 | 0.00 | 82 | 1018.9 |
| 20260503022501 | 39 | 311 | 0.0 | 2.6 | 0.00 | 0.00 | 0.00 | 81 | 1019.1 |
| 20260503022002 | 40 | 274 | 1.7 | 3.5 | 0.00 | 0.00 | 0.00 | 81 | 1019.2 |
| 20260503021501 | 40 | 187 | 1.7 | 1.7 | 0.00 | 0.00 | 0.00 | 81 | 1018.9 |
| 20260503021002 | 40 | 304 | 1.7 | 3.5 | 0.00 | 0.00 | 0.00 | 81 | 1019.3 |
| 20260503020502 | 40 | 185 | 1.7 | 2.6 | 0.00 | 0.00 | 0.00 | 83 | 1019.1 |
| 20260503020002 | 40 | 203 | 1.7 | 2.6 | 0.00 | 0.00 | 0.00 | 82 | 1018.9 |
| 20260503015501 | 40 | 216 | 2.6 | 4.3 | 0.00 | 0.00 | 0.00 | 83 | 1018.8 |
| 20260503015002 | 40 | 267 | 2.6 | 2.6 | 0.00 | 0.00 | 0.00 | 85 | 1018.9 |
| 20260503014502 | 40 | 256 | 2.6 | 3.5 | 0.00 | 0.00 | 0.00 | 85 | 1018.8 |
| 20260503014001 | 40 | 251 | 2.6 | 3.5 | 0.00 | 0.00 | 0.00 | 85 | 1018.9 |
| 20260503013502 | 40 | 284 | 2.6 | 3.5 | 0.00 | 0.00 | 0.00 | 86 | 1018.9 |
| 20260503013001 | 40 | 272 | 2.6 | 2.6 | 0.00 | 0.00 | 0.00 | 86 | 1018.9 |
| 20260503012501 | 40 | 267 | 1.7 | 2.6 | 0.00 | 0.00 | 0.00 | 87 | 1018.7 |
| 20260503012002 | 41 | 277 | 1.7 | 1.7 | 0.00 | 0.00 | 0.00 | 87 | 1018.9 |
| 20260503011502 | 41 | 258 | 1.7 | 2.6 | 0.00 | 0.00 | 0.00 | 87 | 1018.8 |
| 20260503011002 | 41 | 256 | 1.7 | 2.6 | 0.00 | 0.00 | 0.00 | 86 | 1018.8 |
| 20260503010502 | 42 | 256 | 2.6 | 2.6 | 0.00 | 0.00 | 0.00 | 85 | 1018.6 |
| 20260503010003 | 42 | 278 | 1.7 | 1.7 | 0.00 | 0.00 | 0.00 | 84 | 1018.7 |
| 20260503005502 | 42 | 253 | 1.7 | 2.6 | 0.00 | 0.00 | 0.00 | 83 | 1018.8 |
| 20260503005001 | 42 | 271 | 1.7 | 1.7 | 0.00 | 0.00 | 0.00 | 82 | 1018.8 |
| 20260503004501 | 42 | 164 | 0.0 | 2.6 | 0.00 | 0.00 | 0.00 | 80 | 1018.8 |
| 20260503004002 | 43 | 212 | 1.7 | 2.6 | 0.00 | 0.00 | 0.00 | 77 | 1018.7 |
| 20260503003502 | 44 | 234 | 2.6 | 3.5 | 0.00 | 0.00 | 0.00 | 74 | 1018.7 |
| 20260503003002 | 45 | 221 | 2.6 | 3.5 | 0.00 | 0.00 | 0.00 | 72 | 1018.5 |
| 20260503002501 | 46 | 222 | 3.5 | 3.5 | 0.00 | 0.00 | 0.00 | 71 | 1018.6 |
| 20260503002002 | 47 | 244 | 3.5 | 4.3 | 0.00 | 0.00 | 0.00 | 68 | 1018.5 |
| 20260503001502 | 47 | 255 | 3.5 | 5.2 | 0.00 | 0.00 | 0.00 | 66 | 1018.4 |
| 20260503001002 | 46 | 250 | 4.3 | 6.1 | 0.00 | 0.00 | 0.00 | 62 | 1018.4 |
| 20260503000502 | 47 | 257 | 5.2 | 6.1 | 0.00 | 0.00 | 0.00 | 62 | 1018.5 |
| 20260503000002 | 47 | 265 | 7.0 | 7.8 | 0.00 | 0.00 | 0.00 | 59 | 1018.5 |
| 20260502235502 | 48 | 297 | 5.2 | 7.0 | 0.00 | 0.00 | 0.00 | 56 | 1018.5 |
| 20260502235001 | 48 | 278 | 3.5 | 5.2 | 0.00 | 0.00 | 0.00 | 56 | 1018.5 |
| 20260502234502 | 48 | 336 | 2.6 | 7.0 | 0.00 | 0.00 | 0.00 | 51 | 1018.7 |
| 20260502234002 | 48 | 273 | 6.1 | 7.8 | 0.00 | 0.00 | 0.00 | 51 | 1018.5 |
| 20260502233501 | 49 | 288 | 7.0 | 11.3 | 0.00 | 0.00 | 0.00 | 48 | 1018.5 |
| 20260502233002 | 49 | 289 | 7.8 | 11.3 | 0.00 | 0.00 | 0.00 | 51 | 1018.7 |
| 20260502232501 | 49 | 279 | 7.8 | 11.3 | 0.00 | 0.00 | 0.00 | 51 | 1018.5 |
| 20260502232002 | 49 | 263 | 5.2 | 9.6 | 0.00 | 0.00 | 0.00 | 50 | 1018.5 |
| 20260502231502 | 49 | 287 | 7.8 | 11.3 | 0.00 | 0.00 | 0.00 | 49 | 1018.5 |
| 20260502231002 | 50 | 282 | 7.0 | 9.6 | 0.00 | 0.00 | 0.00 | 50 | 1018.6 |
| 20260502230502 | 50 | 289 | 7.0 | 11.3 | 0.00 | 0.00 | 0.00 | 51 | 1018.8 |
| 20260502230001 | 49 | 293 | 7.0 | 11.3 | 0.00 | 0.00 | 0.00 | 49 | 1018.6 |
| 20260502225502 | 49 | 269 | 3.5 | 7.8 | 0.00 | 0.00 | 0.00 | 50 | 1018.7 |
| 20260502225002 | 50 | 272 | 7.8 | 10.4 | 0.00 | 0.00 | 0.00 | 50 | 1018.7 |
| 20260502224502 | 49 | 352 | 3.5 | 7.8 | 0.00 | 0.00 | 0.00 | 50 | 1018.8 |
| 20260502224001 | 48 | 317 | 4.3 | 8.7 | 0.00 | 0.00 | 0.00 | 50 | 1018.9 |
| 20260502223502 | 48 | 276 | 3.5 | 9.6 | 0.00 | 0.00 | 0.00 | 53 | 1018.7 |
| 20260502223002 | 50 | 344 | 5.2 | 9.6 | 0.00 | 0.00 | 0.00 | 51 | 1018.8 |
| 20260502222501 | 50 | 354 | 2.6 | 5.2 | 0.00 | 0.00 | 0.00 | 47 | 1018.7 |
| 20260502222002 | 50 | 335 | 3.5 | 11.3 | 0.00 | 0.00 | 0.00 | 48 | 1018.8 |
| 20260502221502 | 50 | 0 | 4.3 | 7.8 | 0.00 | 0.00 | 0.00 | 51 | 1018.7 |
| 20260502221002 | 48 | 2 | 5.2 | 7.8 | 0.00 | 0.00 | 0.00 | 48 | 1018.9 |
| 20260502220502 | 48 | 267 | 9.6 | 13.9 | 0.00 | 0.00 | 0.00 | 51 | 1018.7 |
| 20260502220003 | 49 | 263 | 5.2 | 11.3 | 0.00 | 0.00 | 0.00 | 53 | 1018.8 |
| 20260502215501 | 49 | 320 | 3.5 | 7.0 | 0.00 | 0.00 | 0.00 | 51 | 1018.9 |
| 20260502215002 | 49 | 23 | 5.2 | 7.0 | 0.00 | 0.00 | 0.00 | 52 | 1019.0 |
| 20260502214502 | 48 | 5 | 2.6 | 7.8 | 0.00 | 0.00 | 0.00 | 53 | 1018.8 |
| 20260502214001 | 48 | 316 | 5.2 | 11.3 | 0.00 | 0.00 | 0.00 | 50 | 1019.0 |
| 20260502213502 | 49 | 338 | 5.2 | 11.3 | 0.00 | 0.00 | 0.00 | 48 | 1018.9 |
| 20260502213002 | 48 | 333 | 3.5 | 7.0 | 0.00 | 0.00 | 0.00 | 51 | 1018.9 |
| 20260502212501 | 47 | 329 | 2.6 | 10.4 | 0.00 | 0.00 | 0.00 | 51 | 1018.8 |
| 20260502212002 | 48 | 307 | 6.1 | 9.6 | 0.00 | 0.00 | 0.00 | 49 | 1018.9 |
| 20260502211502 | 48 | 353 | 4.3 | 9.6 | 0.00 | 0.00 | 0.00 | 49 | 1018.9 |
| 20260502211001 | 48 | 311 | 5.2 | 13.0 | 0.00 | 0.00 | 0.00 | 48 | 1019.0 |
| 20260502210502 | 48 | 356 | 9.6 | 15.6 | 0.00 | 0.00 | 0.00 | 49 | 1018.8 |
| 20260502210002 | 48 | 96 | 4.3 | 7.8 | 0.00 | 0.00 | 0.00 | 50 | 1018.9 |
| 20260502205502 | 47 | 294 | 3.5 | 13.0 | 0.00 | 0.00 | 0.00 | 50 | 1019.1 |
| 20260502205001 | 48 | 320 | 3.5 | 7.8 | 0.00 | 0.00 | 0.00 | 52 | 1019.1 |
| 20260502204502 | 48 | 232 | 5.2 | 17.4 | 0.00 | 0.00 | 0.00 | 54 | 1018.9 |
| 20260502204001 | 48 | 311 | 7.8 | 11.3 | 0.00 | 0.00 | 0.00 | 53 | 1018.9 |
| 20260502203502 | 48 | 350 | 5.2 | 10.4 | 0.00 | 0.00 | 0.00 | 50 | 1018.9 |
| 20260502203002 | 48 | 26 | 2.6 | 8.7 | 0.00 | 0.00 | 0.00 | 52 | 1019.1 |
| 20260502202501 | 47 | 29 | 4.3 | 6.1 | 0.00 | 0.00 | 0.00 | 51 | 1019.0 |
| 20260502202001 | 47 | 327 | 1.7 | 10.4 | 0.00 | 0.00 | 0.00 | 51 | 1019.2 |
| 20260502201501 | 48 | 14 | 8.7 | 11.3 | 0.00 | 0.00 | 0.00 | 52 | 1019.2 |
| 20260502201002 | 47 | 330 | 8.7 | 10.4 | 0.00 | 0.00 | 0.00 | 50 | 1019.2 |
| 20260502200502 | 47 | 295 | 2.6 | 12.2 | 0.00 | 0.00 | 0.00 | 50 | 1019.2 |
| 20260502200002 | 48 | 288 | 3.5 | 11.3 | 0.00 | 0.00 | 0.00 | 54 | 1019.3 |
| 20260502195502 | 47 | 0 | 3.5 | 11.3 | 0.00 | 0.00 | 0.00 | 54 | 1019.1 |
| 20260502195002 | 48 | 7 | 6.1 | 11.3 | 0.00 | 0.00 | 0.00 | 53 | 1019.3 |
| 20260502194502 | 47 | 342 | 10.4 | 13.0 | 0.00 | 0.00 | 0.00 | 51 | 1019.3 |
| 20260502194001 | 48 | 305 | 8.7 | 16.5 | 0.00 | 0.00 | 0.00 | 55 | 1019.4 |
| 20260502193502 | 48 | 265 | 14.8 | 15.6 | 0.00 | 0.00 | 0.00 | 53 | 1019.4 |
| 20260502193002 | 47 | 294 | 7.0 | 16.5 | 0.00 | 0.00 | 0.00 | 51 | 1019.4 |
| 20260502192501 | 48 | 313 | 4.3 | 13.0 | 0.00 | 0.00 | 0.00 | 51 | 1019.4 |
| 20260502192002 | 47 | 7 | 3.5 | 16.5 | 0.00 | 0.00 | 0.00 | 51 | 1019.6 |
| 20260502191502 | 48 | 300 | 7.8 | 14.8 | 0.00 | 0.00 | 0.00 | 54 | 1019.4 |
| 20260502191002 | 49 | 342 | 9.6 | 15.6 | 0.00 | 0.00 | 0.00 | 51 | 1019.4 |
| 20260502190502 | 49 | 301 | 6.1 | 13.9 | 0.00 | 0.00 | 0.00 | 50 | 1019.6 |
| 20260502190001 | 47 | 301 | 8.7 | 13.9 | 0.00 | 0.00 | 0.00 | 52 | 1019.6 |
| 20260502185502 | 47 | 269 | 8.7 | 15.6 | 0.00 | 0.00 | 0.00 | 56 | 1019.5 |
| 20260502185001 | 48 | 3 | 1.7 | 9.6 | 0.00 | 0.00 | 0.00 | 48 | 1019.5 |
| 20260502184502 | 48 | 47 | 1.7 | 13.0 | 0.00 | 0.00 | 0.00 | 50 | 1019.6 |
| 20260502184002 | 48 | 327 | 5.2 | 11.3 | 0.00 | 0.00 | 0.00 | 57 | 1019.6 |
| 20260502183502 | 47 | 295 | 5.2 | 9.6 | 0.00 | 0.00 | 0.00 | 54 | 1019.8 |
| 20260502183002 | 48 | 311 | 5.2 | 14.8 | 0.00 | 0.00 | 0.00 | 53 | 1019.6 |
| 20260502182502 | 47 | 281 | 8.7 | 10.4 | 0.00 | 0.00 | 0.00 | 56 | 1019.6 |
| 20260502182002 | 48 | 3 | 7.0 | 11.3 | 0.00 | 0.00 | 0.00 | 52 | 1020.0 |
| 20260502181501 | 46 | 353 | 8.7 | 12.2 | 0.00 | 0.00 | 0.00 | 52 | 1019.8 |
| 20260502181002 | 46 | 355 | 10.4 | 13.0 | 0.00 | 0.00 | 0.00 | 53 | 1019.9 |
| 20260502180502 | 46 | 280 | 2.6 | 11.3 | 0.00 | 0.00 | 0.00 | 56 | 1020.0 |
| 20260502170501 | 45 | 321 | 5.2 | 11.3 | 0.00 | 0.00 | 0.00 | 54 | 1020.3 |
| 20260502164002 | 46 | 263 | 6.1 | 13.0 | 0.00 | 0.00 | 0.00 | 55 | 1020.4 |
| 20260502163502 | 47 | 283 | 7.0 | 15.6 | 0.00 | 0.00 | 0.00 | 51 | 1020.5 |
| 20260502163002 | 47 | 295 | 4.3 | 11.3 | 0.00 | 0.00 | 0.00 | 59 | 1020.5 |
| 20260502162501 | 46 | 328 | 1.7 | 7.8 | 0.00 | 0.00 | 0.00 | 56 | 1020.5 |
| 20260502162002 | 45 | 291 | 9.6 | 13.0 | 0.00 | 0.00 | 0.00 | 53 | 1020.3 |
| 20260502161501 | 46 | 38 | 3.5 | 16.5 | 0.00 | 0.00 | 0.00 | 59 | 1020.7 |
| 20260502161002 | 46 | 303 | 7.0 | 9.6 | 0.00 | 0.00 | 0.00 | 58 | 1020.6 |
| 20260502160502 | 47 | 316 | 8.7 | 9.6 | 0.00 | 0.00 | 0.00 | 61 | 1020.6 |
| 20260502152002 | 44 | 264 | 7.8 | 11.3 | 0.00 | 0.00 | 0.00 | 62 | 1020.5 |
| 20260502151502 | 45 | 28 | 5.2 | 13.0 | 0.00 | 0.00 | 0.00 | 63 | 1020.6 |
| 20260502151002 | 44 | 345 | 4.3 | 11.3 | 0.00 | 0.00 | 0.00 | 67 | 1020.4 |
| 20260502150501 | 45 | 16 | 6.1 | 8.7 | 0.00 | 0.00 | 0.00 | 65 | 1020.3 |
| 20260502130501 | 40 | 0 | 6.1 | 11.3 | 0.00 | 0.00 | 0.00 | 78 | 1020.1 |
| 20260502123502 | 38 | 344 | 4.3 | 7.8 | 0.00 | 0.00 | 0.00 | 78 | 1020.0 |
| 20260502123002 | 38 | 341 | 3.5 | 8.7 | 0.00 | 0.00 | 0.00 | 80 | 1019.8 |
| 20260502122502 | 38 | 319 | 5.2 | 11.3 | 0.00 | 0.00 | 0.00 | 81 | 1019.7 |
| 20260502122001 | 37 | 315 | 4.3 | 10.4 | 0.00 | 0.00 | 0.00 | 81 | 1019.7 |
| 20260502121502 | 37 | 309 | 5.2 | 13.0 | 0.00 | 0.00 | 0.00 | 82 | 1019.8 |
| 20260502121002 | 37 | 320 | 3.5 | 7.0 | 0.00 | 0.00 | 0.00 | 81 | 1019.7 |
| 20260502120502 | 36 | 0 | 1.7 | 8.7 | 0.00 | 0.00 | 0.00 | 82 | 1019.6 |
| 20260502115501 | 35 | 314 | 3.5 | 10.4 | 0.00 | 0.00 | 0.00 | 84 | 1019.7 |
| 20260502115002 | 35 | 302 | 3.5 | 5.2 | 0.00 | 0.00 | 0.00 | 84 | 1019.7 |
| 20260502114501 | 35 | 306 | 1.7 | 3.5 | 0.00 | 0.00 | 0.00 | 85 | 1019.8 |
| 20260502114001 | 34 | 299 | 4.3 | 6.1 | 0.00 | 0.00 | 0.00 | 87 | 1019.8 |
| 20260502113502 | 33 | 268 | 2.6 | 7.0 | 0.00 | 0.00 | 0.00 | 88 | 1019.6 |
| 20260502113001 | 32 | 288 | 1.7 | 3.5 | 0.00 | 0.00 | 0.00 | 90 | 1019.6 |
| 20260502112501 | 32 | 287 | 1.7 | 3.5 | 0.00 | 0.00 | 0.00 | 91 | 1019.6 |
| 20260502112002 | 32 | 259 | 0.0 | 3.5 | 0.00 | 0.00 | 0.00 | 91 | 1019.5 |
| 20260502111502 | 32 | 288 | 3.5 | 3.5 | 0.00 | 0.00 | 0.00 | 91 | 1019.6 |
| 20260502111002 | 32 | 275 | 1.7 | 3.5 | 0.00 | 0.00 | 0.00 | 90 | 1019.6 |
| 20260502110501 | 32 | 267 | 1.7 | 3.5 | 0.00 | 0.00 | 0.00 | 90 | 1019.5 |
| 20260502110002 | 32 | 301 | 1.7 | 3.5 | 0.00 | 0.00 | 0.00 | 90 | 1019.4 |
| 20260502105502 | 31 | 295 | 0.0 | 2.6 | 0.00 | 0.00 | 0.00 | 90 | 1019.4 |
| 20260502105001 | 31 | 19 | 0.0 | 3.5 | 0.00 | 0.00 | 0.00 | 90 | 1019.5 |
| 20260502104502 | 31 | 310 | 2.6 | 2.6 | 0.00 | 0.00 | 0.00 | 90 | 1019.4 |
| 20260502104002 | 31 | 296 | 1.7 | 3.5 | 0.00 | 0.00 | 0.00 | 90 | 1019.3 |
| 20260502103501 | 31 | 311 | 0.0 | 3.5 | 0.00 | 0.00 | 0.00 | 89 | 1019.3 |
| 20260502103001 | 32 | 293 | 1.7 | 4.3 | 0.00 | 0.00 | 0.00 | 89 | 1019.2 |
| 20260502102502 | 32 | 12 | 2.6 | 4.3 | 0.00 | 0.00 | 0.00 | 90 | 1019.3 |
| 20260502102002 | 31 | 321 | 1.7 | 3.5 | 0.00 | 0.00 | 0.00 | 89 | 1019.3 |
| 20260502101501 | 32 | 287 | 1.7 | 5.2 | 0.00 | 0.00 | 0.00 | 89 | 1019.4 |
| 20260502101002 | 32 | 0 | 1.7 | 3.5 | 0.00 | 0.00 | 0.00 | 89 | 1019.4 |
| 20260502100501 | 32 | 336 | 0.0 | 2.6 | 0.00 | 0.00 | 0.00 | 89 | 1019.5 |
| 20260502091502 | 32 | 11 | 0.0 | 4.3 | 0.00 | 0.00 | 0.00 | 87 | 1019.0 |
| 20260502091002 | 32 | 183 | 1.7 | 2.6 | 0.00 | 0.00 | 0.00 | 87 | 1019.1 |
| 20260502090501 | 32 | 324 | 0.0 | 4.3 | 0.00 | 0.00 | 0.00 | 87 | 1019.1 |
| 20260502071502 | 34 | 300 | 2.6 | 4.3 | 0.00 | 0.00 | 0.00 | 82 | 1019.0 |
| 20260502071002 | 34 | 195 | 1.7 | 3.5 | 0.00 | 0.00 | 0.00 | 83 | 1019.0 |
| 20260502070502 | 35 | 336 | 2.6 | 5.2 | 0.00 | 0.00 | 0.00 | 81 | 1019.1 |
| 20260502070002 | 35 | 341 | 2.6 | 5.2 | 0.00 | 0.00 | 0.00 | 82 | 1019.1 |
| 20260502065501 | 35 | 354 | 1.7 | 3.5 | 0.00 | 0.00 | 0.00 | 82 | 1019.1 |
| 20260502065002 | 35 | 2 | 2.6 | 5.2 | 0.00 | 0.00 | 0.00 | 82 | 1019.0 |
| 20260502064502 | 36 | 9 | 2.6 | 6.1 | 0.00 | 0.00 | 0.00 | 82 | 1019.1 |
| 20260502064002 | 36 | 337 | 1.7 | 4.3 | 0.00 | 0.00 | 0.00 | 83 | 1019.2 |
| 20260502063501 | 36 | 17 | 5.2 | 6.1 | 0.00 | 0.00 | 0.00 | 83 | 1019.1 |